Location: Ar Ranvel
(48.3000°N, 4.8833°W)
Time: 14:35:53
(UTC+00:00)

SPOT 5 - Pass Details

Date: 16 June 2021
Orbit: 623 x 815 km, 98.2° (Epoch: 04 August)

Event Time Altitude Azimuth Distance (km) Brightness Sun altitude
Exits shadow 20:53:10 - 131° (SE) 2,725 5.1 -4.7°
Reaches altitude 10° 20:54:16 10° 126° (SE) 2,329 4.8 -4.8°
Maximum altitude 20:58:45 31° 65° (ENE) 1,302 4.1 -5.3°
Drops below altitude 10° 21:03:04 10° 4° (N) 2,241 6.1 -5.8°
Sets 21:05:30 0° 355° (N) 3,134 7.1 -6.1°
